Regional Weather Roundup
Issued by NWS

Home | Current Version | Previous Version | Graphics & Text | Print | Product List | Glossary On
Versions: 1 2 3 4 5 6 7 8 9 10 11 12 13 14 15 16 17 18 19 20 21 22 23 24 25 26 27 28 29 30 31 32 33 34 35 36 37 38 39 40 41 42 43 44 45 46 47 48 49 50
000
ASUS43 KLMK 232302
RWRKY
KENTUCKY REGIONAL WEATHER ROUNDUP
NATIONAL WEATHER SERVICE LOUISVILLE KY
700 PM EDT SAT SEP 23 2017

NOTE "FAIR" INDICATES FEW OR NO CLOUDS BELOW 12,000 FEET
WITH NO SIGNIFICANT WEATHER AND/OR OBSTRUCTIONS TO VISIBILITY.

KYZ001>023-026-027-061>063-070>075-240000-
WESTERN AND SOUTH CENTRAL KENTUCKY

CITY           SKY/WX    TMP DP  RH WIND       PRES   REMARKS
PADUCAH        CLEAR     87  63  44 SE7       29.98R
HENDERSON      CLEAR     85  63  47 E6        30.02S
OWENSBORO      CLEAR     85  64  49 E7        30.03R
HOPKINSVILLE   NOT AVBL
BOWLING GREEN  CLEAR     82  69  64 NE6       30.03R
GLASGOW        CLEAR     83  66  56 NE3       30.04S
$$

KYZ024-025-028>034-038-045-046-053-240000-
NORTH CENTRAL KENTUCKY

CITY           SKY/WX    TMP DP  RH WIND       PRES   REMARKS
LOUISVILLE/SDF PTCLDY    87  61  41 E7        30.04S
LOUISVILLE/LOU CLEAR     86  65  49 NE7       30.05S
FORT KNOX      NOT AVBL
$$

KYZ035>037-039>044-047>052-055>060-089>105-240000-
NORTHEAST KENTUCKY

CITY           SKY/WX    TMP DP  RH WIND       PRES   REMARKS
LEXINGTON      CLEAR     82  61  48 NE7       30.07S
COVINGTON      PTCLDY    86  64  47 E8        30.07S
FRANKFORT      CLEAR     86  60  41 NE3       30.06S
$$

KYZ054-064>069-076>088-106>120-240000-
SOUTHEAST KENTUCKY

CITY           SKY/WX    TMP DP  RH WIND       PRES   REMARKS
JACKSON        CLEAR     78  64  61 CALM      30.09R
LONDON         CLEAR     82  62  50 NE6       30.07R
SOMERSET       NOT AVBL
MIDDLESBORO    CLEAR     79  67  66 CALM      30.06R
MONTICELLO     CLEAR     83  68  60 N13       30.06S
$$





USA.gov is the U.S. government's official web portal to all federal, state and local government web resources and services.